SL-12 DEB, 43541

Orbit data source: Space-Track

SL-12 DEB, 43541 is space debris in HEO originally from a launch on Fri, 26 Oct 2007 UTC launched from the Tyuratam Missile And Space Complex (TTMTR). Debris objects in space refer to the collection of defunct objects orbiting the Earth. Examples of debris include non-operational satellites, rocket bodies, and fragments generated from explosions, collisions, or faulty payload assembly.

Loading next visibility...
Identifier
43541, 2007-052AH
Orbit
HEO
Last TLE update
2 days ago
Origin
Manufacturer
RKKE
Mission
Spacecraft
Bus & Motor
Unknown
Mass
Unknown
Launch date (UTC)
2007-10-26 (18 years ago)
Launch vehicle
Unknown
Launch site
Tyuratam Missile And Space Complex (TTMTR)
Object type
Payload
Rocket body
Debris
Shape & HBR
Unknown
Radar Cross Section
Medium (>0.1 m² and <1 m²)

Expand to show TLE details & history

TLE from 2 days ago
0 SL-12 DEB
1 43541U 07052AH  25185.16188885  .00000109  00000-0  95376-3 0  9990
2 43541  65.2462  41.5752 5669517 227.5700  68.1546  4.25808011108828
Epoch: 2025-07-04T03:53Z
TLE epoch observation values (Epoch: 2025-07-04T03:53:07.196Z)
Latitude
0.00001°
Longitude
60.88632°
Altitude
11,298.463 km
Speed
4.507 km/s
True Right ascension
02h 46m 20s
True Declination
0° 00' 00"
Sunlit
Object was in daylight at epoch
Visualization orbit readout
Latitude
54.75759°
Longitude
100.83898°
Altitude
17,533.927 km
Speed
2.927 km/s
Apparent Right ascension
04h 55m 03s
Apparent Declination
40° 17' 17"
Sunlit
Object is in daylight
Visualization observer readout
Local Sidereal Time
15:25:25
Azimuth
342.956° N
Elevation
-7.237°
Doppler factor
1
Orbital elements
Apogee altitude
18,815.09 km
Perigee altitude
584.352 km
Semi-major axis
16,077.858 km
Eccentricity
0.56695
Inclination
65.2462°
RAAN
41.5752°
Arg. of periapsis
227.57°
True anomaly
Unknown
Mean anomaly
68.1546°
Eccentric anomaly
Unknown
Mean motion
1.06464 °/min
Orbital period
338.14 mins
BSTAR
0.00095376
Loading maneuver chart data...
Loading SW <> Apogee altitude chart data...
Loading historical data...
Loading historical data...
Loading historical data...
Loading historical data...
Loading historical data...
Loading historical data...
Loading historical data...

SL-12 DEB Visibility forecast

Observer location: undefined°, undefined°

Span
Click to sort rows by Start time (UTC) header in descending order
Start Az.
Max El. time (UTC)
Max El. Az.
Max El.
End time (UTC)
End Az.
36 mins2025-07-06 04:32:24.606Z329.52° NNW2025-07-06 04:56:24.606Z305.876° NW14.55°2025-07-06 05:08:24.606Z278.746° WNW
224 mins2025-07-06 12:07:24.606Z134.378° SE2025-07-06 14:04:24.606Z70.982° E39.314°2025-07-06 15:51:24.606Z31.884° NE
248 mins2025-07-06 17:54:24.606Z240.105° WSW2025-07-06 21:22:24.606Z0.201° NNE38.382°2025-07-06 22:02:24.606Z80.735° E
46 mins2025-07-07 02:42:24.606Z331.74° NNW2025-07-07 03:28:24.606Z304.859° NW27.498°2025-07-07 03:28:24.606Z304.859° NW
|